Theta_e
340 340 339 339 338 337 336 336 336 336 335 335 336 336 335 334 334 334 335 336 337 337 337 337 337 337 337 338 338 340 342 342 342 342 342 342 342 341 342 343 345 346 347 348 347 347 346 346 347 348 349 348 348 348 348 347 347 347 347 346 347 347 346 347 348 347 347 347 348 348 347 347 346 346
339 338 339 339 338 337 336 336 336 335 334 334 335 335 334 334 334 334 335 335 335 335 335 334 335 335 335 336 336 337 338 338 339 339 340 340 340 340 341 342 343 344 345 344 345 346 346 346 346 347 348 347 347 348 348 347 347 347 347 347 347 347 347 347 348 348 348 348 348 348 348 347 346 346
339 338 339 338 338 337 337 336 335 334 334 333 333 333 333 333 334 333 334 333 333 333 333 333 333 333 334 334 334 335 335 336 336 337 337 338 338 339 340 341 343 343 342 341 340 340 341 343 344 344 345 345 345 346 346 347 347 348 348 348 348 348 348 348 348 349 348 348 348 348 348 347 346 346
338 337 338 338 337 337 336 335 334 333 333 332 332 332 332 333 333 333 334 334 333 333 334 334 333 332 333 332 332 333 334 334 335 335 336 336 337 338 339 340 340 340 339 339 339 339 339 340 341 342 342 341 341 342 343 344 344 346 347 348 348 348 348 348 348 347 347 347 347 348 348 347 346 346
337 337 337 337 337 336 335 334 334 333 333 332 332 332 332 332 333 333 333 334 333 333 332 332 332 332 332 331 331 332 332 333 334 334 334 335 335 337 339 340 340 339 339 340 340 341 341 340 340 340 340 341 340 341 341 341 342 342 343 345 347 346 346 345 345 345 346 346 347 347 348 347 347 346
336 336 336 336 336 335 333 334 334 334 334 333 332 332 331 331 332 332 332 332 332 332 332 332 332 331 331 331 331 331 332 333 333 333 333 333 334 335 336 338 338 338 338 338 339 339 339 340 340 340 340 340 340 341 341 341 341 341 341 342 342 342 342 342 343 344 345 346 347 347 348 347 347 346
334 334 334 334 334 334 333 333 333 333 332 331 331 331 332 331 331 331 331 332 332 333 332 332 332 332 331 332 332 332 332 332 331 332 332 332 333 332 333 334 335 336 336 336 337 337 337 338 339 339 340 340 339 339 341 342 342 341 341 340 340 340 341 342 343 344 345 346 346 347 347 348 347 347
333 333 333 333 333 333 333 333 333 332 332 332 332 333 333 333 332 332 332 333 333 333 334 334 333 333 333 333 333 333 332 332 332 333 333 333 334 333 332 333 333 333 334 334 334 336 337 339 340 340 340 339 338 338 339 341 342 342 341 341 340 340 341 342 343 343 344 344 343 344 346 348 348 348
333 332 332 333 333 332 333 333 332 333 332 332 332 333 334 333 333 333 333 333 333 334 334 334 334 334 334 334 334 333 334 334 334 334 333 333 334 334 334 334 334 334 334 333 332 333 336 338 339 340 339 338 338 337 337 338 340 342 342 341 340 340 340 341 342 342 342 341 341 342 344 346 347 348
332 332 331 332 332 331 332 332 332 333 333 332 332 333 333 333 333 333 333 334 334 334 334 334 334 335 334 335 335 335 335 334 335 334 334 334 334 334 334 334 334 334 334 333 333 334 336 338 339 339 339 340 340 338 337 337 337 340 341 341 340 340 340 340 341 341 340 340 340 340 342 343 346 347
331 331 331 330 330 330 330 331 332 332 332 331 331 331 331 331 331 331 330 332 333 333 333 333 333 334 334 335 334 335 334 334 334 334 334 334 334 334 334 335 335 334 334 333 333 334 337 338 338 339 339 340 339 338 337 337 337 337 338 340 341 340 341 341 341 341 340 339 338 339 341 342 343 345
330 330 330 330 330 330 330 330 330 330 330 330 329 329 329 328 327 327 327 328 329 329 329 329 330 331 331 332 332 332 332 332 333 334 334 334 334 334 335 335 335 335 334 334 333 334 336 336 336 336 337 337 337 337 337 337 336 336 336 337 339 340 341 341 340 340 338 337 336 336 338 340 341 343
330 329 329 329 329 329 330 329 330 330 330 330 330 330 329 327 326 327 328 328 327 328 327 327 327 328 328 328 329 329 329 330 331 332 332 332 333 334 335 335 334 334 334 334 334 334 335 336 336 337 337 337 336 337 336 336 336 336 335 334 334 335 338 340 340 339 337 335 334 333 334 337 339 341
330 329 328 329 328 328 329 328 328 328 328 329 329 328 328 327 327 328 328 327 327 326 326 326 326 327 327 327 327 328 328 328 329 329 330 331 331 332 334 335 334 334 335 335 335 335 335 335 336 336 337 337 337 336 337 337 337 337 336 335 334 333 334 335 337 337 336 334 333 332 331 333 337 339
330 329 329 329 328 328 328 328 327 327 327 327 327 327 328 327 328 328 327 327 326 326 326 326 327 327 327 327 327 327 327 328 329 330 331 331 331 331 333 334 333 332 334 335 335 334 334 334 335 335 334 335 335 335 335 335 335 335 335 337 337 337 336 335 334 334 333 332 331 330 330 331 336 338
329 329 329 329 328 328 328 327 327 326 326 327 327 327 327 328 328 327 327 327 327 327 327 327 327 327 327 327 326 327 327 328 329 330 329 330 330 330 331 331 331 331 332 333 333 332 332 334 334 335 335 335 334 334 333 333 333 332 334 336 337 337 338 338 337 336 335 333 333 332 331 332 334 337
328 327 327 327 326 326 327 327 326 326 327 327 327 327 327 327 327 327 327 327 327 327 327 327 327 326 326 326 326 327 327 328 329 329 329 329 330 330 330 330 331 330 330 331 331 331 331 332 332 333 334 334 334 333 332 332 333 333 334 335 335 335 336 336 336 336 337 337 337 336 335 335 335 335
325 324 324 324 325 326 327 327 326 326 326 326 326 326 325 325 326 326 326 326 326 326 326 326 326 326 326 326 326 327 327 327 328 329 329 329 330 330 330 330 330 330 330 331 330 330 330 329 330 331 331 331 332 332 331 333 334 335 335 335 334 334 334 333 333 333 333 334 335 335 335 334 334 334
317 320 322 323 324 325 326 326 325 325 325 325 325 325 326 326 325 326 326 325 325 325 325 326 326 325 325 325 325 326 326 326 326 326 327 327 327 327 328 328 328 327 327 327 327 326 325 325 326 329 331 332 333 333 333 333 334 334 334 334 334 334 333 332 331 331 330 330 331 332 332 332 331 331
311 316 319 320 322 323 324 325 325 326 326 326 326 326 326 326 326 326 326 325 325 324 324 324 324 323 323 324 324 325 325 325 324 325 325 325 325 325 326 326 325 325 325 324 325 325 326 325 325 327 330 332 332 333 333 333 333 334 334 333 334 334 333 333 333 332 330 329 329 329 330 330 331 330
313 317 321 323 325 326 327 327 327 328 327 327 327 327 326 326 325 325 325 325 324 323 323 323 322 322 322 322 323 323 324 324 324 324 324 324 324 325 325 325 325 325 326 325 326 328 329 329 328 329 330 331 331 332 332 332 333 333 332 332 333 333 333 333 333 333 332 330 328 327 327 328 329 330
318 321 324 327 328 328 328 328 328 328 327 327 326 326 325 325 325 325 324 323 322 321 321 321 321 322 322 322 322 322 322 323 323 323 324 324 324 324 324 325 325 326 326 326 327 329 329 329 330 330 330 330 330 331 331 331 332 332 332 332 332 332 332 332 332 332 332 331 330 328 326 326 327 328
318 318 322 327 329 329 329 329 328 327 326 326 326 325 325 325 324 323 321 321 320 321 321 321 321 321 321 321 322 322 322 322 322 323 324 324 324 324 325 326 327 328 328 328 329 329 329 329 329 330 330 331 331 331 332 332 333 333 332 332 332 331 332 331 331 332 332 332 332 330 328 326 326 326
318 316 317 321 324 325 325 324 325 326 325 326 325 325 325 324 322 321 320 321 322 321 321 321 321 321 321 321 322 322 322 322 323 324 324 324 325 325 326 327 328 328 328 328 329 329 330 330 330 330 331 331 331 331 332 332 332 332 332 332 332 332 332 332 331 332 333 333 333 332 330 328 326 326
317 317 315 315 317 317 316 317 322 325 325 324 325 324 323 322 321 321 322 323 323 322 321 321 321 322 322 322 323 324 323 323 324 324 325 325 325 325 326 327 327 327 327 328 328 329 330 330 330 330 330 331 331 331 331 331 330 330 330 330 329 329 330 331 331 332 333 333 333 333 332 331 329 327
317 316 315 313 313 312 310 311 320 325 325 324 325 324 324 323 323 323 324 324 324 323 323 323 323 323 323 323 324 324 324 324 324 324 325 325 325 325 325 326 326 326 327 328 328 328 329 330 330 330 330 330 330 330 330 329 329 328 328 328 328 328 329 330 332 332 332 332 332 332 333 333 332 330
315 315 313 311 310 309 308 312 321 326 326 326 325 325 325 325 324 325 325 325 325 325 325 325 325 325 324 324 325 325 325 325 325 325 325 325 326 326 326 326 326 327 327 327 327 328 328 329 329 329 329 329 329 329 328 327 327 327 327 327 328 329 331 331 332 332 332 333 333 333 333 333 333 332
313 312 310 309 311 314 315 318 323 325 325 325 325 324 325 325 325 326 326 326 326 326 326 325 325 325 325 325 325 325 326 326 326 326 326 326 326 327 326 326 327 327 327 327 327 327 327 327 328 328 328 328 328 327 327 327 327 327 327 327 327 328 330 331 331 332 332 332 333 333 333 333 333 333
308 310 311 314 318 321 322 322 323 324 324 324 324 324 325 325 325 324 324 325 326 326 326 326 326 326 326 326 326 326 326 326 326 326 327 327 327 327 327 327 327 327 328 327 327 327 327 327 327 327 327 328 327 327 327 327 327 327 327 327 328 328 330 330 331 331 331 331 331 332 332 332 332 332
310 314 318 320 322 323 322 323 323 324 324 324 324 325 325 324 324 323 322 323 325 326 326 326 327 327 326 326 326 326 326 326 326 327 327 327 328 327 327 328 328 328 328 328 328 328 328 328 329 329 328 328 328 328 328 327 328 327 327 327 328 328 329 330 331 331 331 331 331 331 331 332 332 332
316 319 321 322 322 323 323 323 324 324 325 325 325 325 325 325 325 324 323 324 325 325 325 325 326 326 326 326 327 327 326 326 326 327 327 327 327 327 327 328 328 328 327 328 328 329 329 329 329 329 329 329 328 328 328 328 328 328 327 327 328 328 329 330 331 331 331 331 331 331 332 332 332 333
321 322 323 323 324 325 324 324 324 324 324 324 325 325 325 325 325 325 324 324 324 325 325 325 325 325 325 325 326 326 326 326 326 326 326 326 326 327 327 327 327 327 327 327 327 328 328 328 328 328 328 329 329 328 329 329 329 328 328 328 329 330 330 330 330 331 330 331 331 331 332 332 333 333
322 323 324 324 325 324 324 324 323 323 323 324 324 324 324 324 324 324 325 324 324 324 324 324 324 324 325 325 325 325 326 326 327 327 326 326 326 326 326 327 327 327 326 326 326 327 328 328 329 329 329 329 329 329 329 330 329 329 329 329 329 329 329 330 330 330 330 330 330 330 331 333 333 334
323 324 324 324 324 323 323 323 323 323 323 323 323 323 322 322 322 322 323 323 323 323 323 322 322 322 323 323 323 323 324 324 325 326 326 326 326 326 326 326 327 327 327 326 326 326 327 327 328 329 329 329 329 329 329 330 330 329 329 329 329 329 329 329 330 330 329 330 330 330 330 331 332 334
323 324 324 324 323 323 323 323 323 323 323 322 322 321 321 321 321 320 321 321 321 320 320 320 320 321 321 321 321 321 322 322 323 324 324 325 325 326 326 326 326 326 327 327 326 326 326 327 328 328 328 329 330 330 329 329 329 329 329 329 329 330 329 329 329 329 329 329 329 329 330 330 332 333
323 324 323 323 324 323 323 323 323 321 321 320 320 319 319 319 319 319 318 318 319 319 319 319 319 319 319 320 320 320 320 320 321 322 322 323 324 324 325 325 325 326 326 326 326 325 326 326 327 328 328 328 329 330 330 329 329 329 329 329 330 330 329 329 329 329 329 330 330 330 331 331 332 334
322 322 323 324 324 323 322 321 321 320 319 319 319 319 318 318 318 318 317 317 317 317 317 318 317 317 318 318 318 318 319 319 319 320 320 321 322 323 323 324 325 325 325 326 326 326 326 326 326 327 327 328 329 330 330 329 329 329 329 329 329 329 329 329 329 329 330 331 330 330 331 331 332 334
322 322 323 323 322 320 319 319 319 319 319 318 318 318 318 317 317 316 316 316 316 316 316 316 316 316 316 316 316 316 316 317 317 318 318 319 320 321 322 323 324 325 325 325 325 326 326 325 325 327 328 328 329 329 329 329 328 328 329 329 329 329 329 329 330 330 331 331 331 331 331 332 332 334
322 322 322 321 319 319 319 319 319 319 319 318 318 318 317 317 316 315 315 315 315 315 315 315 314 314 314 315 315 315 315 315 315 316 316 317 318 319 320 321 323 324 325 325 325 325 326 325 325 327 328 328 328 329 329 329 327 326 327 329 329 329 329 329 330 330 331 331 332 332 331 332 332 333
322 321 321 320 319 319 319 319 319 319 319 318 318 317 316 316 315 314 314 314 314 314 314 314 314 314 314 315 315 314 315 315 315 315 315 315 316 317 318 320 322 323 324 325 325 325 326 326 326 327 328 328 328 328 329 329 327 326 327 328 328 328 328 328 329 330 330 331 331 332 331 331 332 332
321 320 320 319 320 320 320 320 319 319 319 318 318 317 316 315 314 314 314 314 314 314 314 314 315 315 315 315 315 315 315 315 315 315 315 315 316 316 317 319 321 322 323 324 324 325 326 326 326 326 327 328 328 328 328 328 326 325 325 326 327 328 328 329 329 329 329 330 331 331 331 331 331 331
320 320 319 320 320 320 320 320 319 319 319 318 318 317 315 315 314 314 315 315 315 315 316 316 317 317 317 316 316 316 315 315 315 315 315 315 316 316 316 317 320 321 322 323 324 325 326 327 326 326 327 327 327 327 327 326 325 324 324 324 325 327 328 328 328 329 329 329 330 330 331 331 331 331
320 319 319 319 320 320 320 320 319 319 319 318 317 316 315 314 314 314 315 316 317 317 318 318 318 318 318 318 317 317 317 316 315 315 315 315 315 316 316 316 318 320 321 323 324 324 325 326 327 327 327 327 327 327 326 325 324 324 324 324 324 325 326 326 327 327 328 329 329 329 330 330 331 331
320 320 320 319 319 320 320 319 318 319 318 317 316 315 314 314 315 315 316 317 318 319 319 319 319 319 319 319 319 319 318 318 316 316 316 316 316 316 316 316 317 319 321 322 323 324 326 327 327 327 327 327 327 327 325 324 323 323 323 323 324 324 325 325 325 327 328 328 329 330 330 330 330 331
320 320 319 319 319 319 319 318 318 318 317 315 315 314 314 315 315 316 318 318 319 320 320 320 320 320 321 321 321 321 321 320 319 318 318 317 317 318 318 317 318 319 320 322 323 325 327 327 327 327 327 327 326 325 324 323 322 321 321 322 322 323 323 323 324 326 326 324 324 326 329 330 330 329
Wind_Speed
9 8 9 9 9 9 10 12 14 15 13 11 10 9 9 11 12 14 14 14 15 15 16 15 13 12 11 11 13 14 14 14 15 17 18 19 19 18 18 20 21 21 20 20 20 21 22 23 24 25 27 28 29 30 29 29 30 31 32 31 31 30 30 29 29 30 30 31 32 32 31 30 30 30
10 9 8 8 9 11 11 13 15 14 13 12 12 11 12 12 13 14 14 14 14 14 17 19 19 18 15 13 13 13 13 14 15 17 19 20 21 21 19 18 18 18 19 20 20 20 21 23 24 24 25 26 26 26 26 26 27 28 29 29 29 28 27 27 27 27 27 28 29 29 28 29 29 29
10 10 10 10 11 12 12 13 13 13 14 13 13 14 15 15 15 17 18 17 15 14 16 18 19 19 19 19 18 16 14 14 15 14 15 17 19 20 20 19 18 20 23 25 23 22 23 24 24 25 26 26 26 26 25 25 25 25 26 27 27 26 26 25 25 25 25 25 25 26 26 27 28 28
10 11 12 12 12 12 13 13 13 13 14 13 14 15 15 14 14 14 16 17 15 12 12 15 17 17 18 19 19 19 17 17 18 17 16 16 15 15 17 20 22 25 27 25 21 20 20 22 23 25 27 27 27 27 27 26 24 24 25 25 25 25 24 24 24 23 23 23 23 24 24 26 27 27
11 12 12 12 11 11 13 14 14 15 15 15 16 15 15 15 15 14 13 15 17 16 16 18 19 18 18 19 19 18 18 18 18 20 22 22 20 17 15 15 17 20 22 21 19 19 19 21 23 25 27 28 29 28 27 27 26 24 25 25 24 24 23 23 23 23 22 22 22 23 23 24 25 25
11 13 13 12 11 11 13 14 15 16 15 15 15 15 15 16 15 15 16 18 21 22 21 20 19 19 20 20 19 18 19 20 20 22 24 25 25 24 21 19 18 17 18 19 20 21 22 22 23 23 25 26 28 29 28 28 27 25 25 25 24 24 23 23 23 22 21 21 21 22 22 23 23 24
12 13 13 13 12 12 14 14 15 15 14 14 15 16 15 15 15 15 16 18 19 19 18 17 17 18 18 18 18 19 21 22 22 22 23 23 23 24 24 24 23 20 19 20 21 22 23 24 24 24 24 24 25 27 28 28 28 27 26 25 25 24 23 23 23 22 21 20 20 21 22 22 22 23
12 13 12 12 12 12 13 13 13 13 14 14 14 15 16 15 15 15 16 17 17 16 16 16 16 18 19 20 21 21 22 21 20 21 21 21 21 21 21 22 22 20 19 20 23 24 23 22 23 23 23 24 25 25 26 27 28 28 27 27 26 25 24 24 23 23 22 21 21 21 21 21 21 22
12 13 12 13 13 13 12 13 13 15 17 17 14 15 16 16 16 17 17 18 19 18 19 19 18 20 21 23 23 22 21 20 20 21 22 21 20 20 20 19 18 19 19 19 21 24 23 22 23 25 25 25 26 25 25 25 27 28 28 28 28 27 26 25 25 24 24 23 22 21 21 21 21 21
12 13 13 13 14 13 13 13 14 15 17 18 16 15 15 15 17 18 17 17 18 19 19 19 19 20 19 20 21 21 20 21 21 22 22 21 20 21 21 19 17 17 18 19 19 19 20 20 22 24 25 24 25 26 25 26 28 29 30 29 29 29 28 27 27 26 24 23 22 22 22 21 21 21
12 13 13 15 15 14 13 14 16 17 17 18 19 19 19 18 19 20 20 19 19 19 20 20 19 19 19 19 20 20 20 21 21 22 23 24 23 23 21 19 17 17 17 20 21 20 19 19 21 23 24 24 25 27 27 27 28 29 30 31 30 30 29 29 28 27 25 24 23 22 22 22 22 22
12 13 13 15 14 14 15 16 17 18 18 20 20 18 18 20 21 22 22 21 20 21 22 22 21 22 22 22 22 22 22 22 22 21 22 23 23 22 20 19 18 19 20 20 20 19 18 19 21 21 22 23 24 25 26 26 26 27 29 30 30 30 30 29 29 28 27 26 24 23 23 23 23 23
11 13 13 14 14 14 15 16 16 17 17 18 19 17 17 20 22 21 21 20 20 20 21 22 22 22 23 23 23 23 24 24 24 23 23 24 23 22 21 21 20 20 23 23 21 19 17 18 18 18 18 19 21 23 24 25 25 25 26 29 30 31 31 32 31 30 29 28 27 26 25 25 24 23
12 14 14 14 15 15 16 16 16 17 16 17 18 18 19 21 21 21 22 22 21 21 23 23 23 22 22 22 22 23 24 24 24 24 24 24 25 24 23 23 21 19 20 21 21 21 20 21 22 22 21 21 21 22 24 24 24 24 24 25 27 29 31 33 34 34 33 32 31 29 28 27 26 24
13 15 15 15 17 17 18 18 18 18 18 19 19 19 20 21 21 21 23 24 23 24 25 25 24 24 24 24 24 24 24 24 23 23 22 23 24 24 23 23 22 20 18 18 21 22 21 21 23 24 24 24 24 24 26 26 26 25 25 24 24 25 26 28 31 33 35 35 33 32 30 29 27 26
15 16 17 18 18 19 18 19 20 21 21 21 20 20 21 21 21 22 22 23 23 25 26 26 27 28 28 28 27 27 26 26 25 25 25 25 25 24 24 23 23 22 20 20 23 25 24 22 22 23 22 21 22 22 23 24 25 24 24 24 24 23 23 23 24 25 28 29 30 30 29 29 28 27
16 17 18 19 20 20 20 19 21 22 23 23 23 24 25 26 26 26 27 27 27 28 29 30 30 31 31 30 31 30 29 28 27 27 27 25 24 25 25 24 24 24 24 23 24 27 27 24 24 25 23 22 22 23 22 22 21 21 20 21 22 22 22 22 22 23 23 24 25 25 25 26 27 27
17 18 20 21 21 21 20 21 23 25 26 27 28 29 30 31 31 32 32 32 31 31 31 32 33 33 32 33 33 31 29 29 29 28 26 24 23 24 25 26 26 25 25 23 25 28 28 25 25 26 26 25 25 24 22 20 19 20 21 21 22 22 21 21 22 22 23 24 24 25 25 25 25 26
18 18 19 20 20 20 21 24 26 27 28 29 30 31 32 33 34 34 33 32 32 31 31 32 34 35 36 37 37 36 35 35 34 33 31 31 31 30 30 30 30 29 28 27 28 31 31 28 27 26 24 23 23 21 19 18 19 20 21 22 23 24 23 22 21 21 22 23 24 26 26 27 27 27
18 19 20 20 20 20 22 24 26 27 28 29 31 33 35 36 36 35 34 32 32 32 31 32 33 33 34 36 38 39 39 39 39 37 36 36 36 35 34 35 34 33 31 28 26 28 29 28 26 26 23 22 21 21 20 20 20 20 20 20 22 22 22 21 21 21 22 22 23 24 26 26 27 27
21 22 21 19 19 20 21 24 26 27 29 30 32 33 34 34 35 34 33 32 30 28 28 28 29 28 28 29 31 33 34 35 36 36 37 36 34 31 32 34 33 30 28 24 21 22 24 23 23 24 24 24 24 24 23 22 21 21 21 21 22 23 23 23 23 23 24 24 23 23 25 26 26 27
23 23 19 16 18 21 22 24 26 27 29 31 31 32 32 32 32 32 31 29 26 24 23 24 25 25 23 23 24 25 26 27 27 29 32 33 31 29 30 31 29 27 26 22 18 20 23 23 23 23 24 25 25 23 22 22 20 19 19 20 21 22 23 23 24 24 25 24 23 22 23 25 26 27
24 24 20 15 17 20 22 24 26 27 27 29 30 30 30 30 29 28 26 24 24 24 23 22 21 20 18 18 19 20 21 22 22 21 22 24 26 27 29 27 24 25 25 20 15 16 18 19 20 20 19 21 22 19 18 17 17 17 16 17 18 19 20 21 22 21 21 21 22 21 21 23 26 28
25 25 23 19 17 19 22 24 25 25 25 26 28 27 27 26 24 22 21 22 24 24 22 20 19 18 17 16 17 18 18 17 16 15 15 16 19 22 24 23 22 25 27 23 19 19 19 17 17 17 15 17 19 19 17 18 19 18 18 18 18 19 20 21 21 20 20 20 21 22 21 22 25 27
25 26 25 24 22 22 24 25 25 24 22 22 22 22 23 22 19 18 19 21 23 23 20 19 18 18 18 16 16 16 16 14 12 13 13 14 15 18 21 22 23 26 27 23 22 23 22 20 20 19 17 18 20 21 21 22 23 22 22 22 23 23 22 22 21 21 21 20 20 20 19 19 22 25
27 27 26 26 26 27 27 25 22 20 19 18 18 18 20 19 17 17 20 21 22 21 19 18 18 18 18 17 15 15 14 12 11 11 12 13 14 16 18 20 22 26 26 23 22 23 24 22 21 21 20 20 21 23 25 26 27 26 26 26 25 23 21 20 20 21 21 20 19 17 15 14 16 19
27 28 28 28 29 28 25 22 18 17 17 18 18 18 19 18 17 18 20 21 20 19 18 18 18 18 18 18 17 16 14 13 12 12 12 12 13 15 17 18 20 23 23 22 21 22 23 23 22 21 21 21 22 24 26 27 28 27 26 25 23 20 18 17 18 18 19 20 20 18 16 14 14 14
27 29 29 28 25 23 21 18 16 16 17 18 20 21 19 17 17 19 20 20 20 19 19 19 19 19 19 18 18 17 17 16 16 16 15 15 14 15 16 17 18 20 21 20 19 18 19 20 20 20 21 21 22 24 25 26 26 26 25 23 21 18 16 16 16 17 18 19 19 19 20 18 17 16
27 27 25 22 19 19 19 19 19 19 20 21 22 22 20 19 20 21 22 23 22 22 22 21 20 19 19 19 18 18 20 20 19 18 17 17 16 16 17 17 17 17 17 17 16 16 16 17 18 18 19 19 21 23 25 25 25 25 23 21 19 17 15 15 16 17 18 17 16 18 20 20 18 18
24 22 20 18 18 20 21 21 21 21 21 21 21 20 21 22 22 23 24 24 22 22 21 21 21 21 21 21 20 20 21 21 19 18 18 18 17 17 18 18 17 16 15 15 16 16 16 16 17 18 18 19 20 22 23 23 23 22 21 19 19 18 15 14 13 14 15 16 14 15 17 19 19 17
21 20 19 18 19 21 21 22 21 21 21 21 21 19 20 21 22 22 22 22 21 22 22 21 21 22 22 22 21 21 21 21 20 19 19 19 19 18 19 20 20 18 17 16 16 16 17 18 20 22 22 22 22 22 22 21 21 21 19 17 16 16 15 14 13 13 14 15 14 13 15 17 18 17
21 22 22 21 23 24 23 22 21 21 21 21 20 19 18 19 20 20 20 21 21 22 22 22 22 23 23 22 21 21 22 22 22 21 21 21 21 21 21 22 22 22 20 18 17 16 17 18 20 22 23 24 23 22 22 21 20 20 18 15 14 15 15 15 15 15 15 15 15 14 14 16 17 17
22 23 24 25 26 26 24 23 23 23 22 22 22 21 20 20 21 21 21 22 23 23 24 25 25 24 23 22 21 20 21 21 20 20 21 21 22 23 22 21 21 21 21 19 18 17 16 16 16 17 18 19 20 22 23 23 21 19 18 17 17 17 16 15 14 14 14 15 16 16 15 15 14 13
22 24 26 25 24 24 23 23 24 25 25 25 25 25 24 24 25 24 23 24 24 24 25 26 26 25 24 23 22 22 21 20 19 18 19 19 20 21 21 21 21 21 21 20 18 17 17 16 16 15 15 14 15 18 21 23 22 20 18 17 17 17 16 16 14 13 13 14 15 16 15 14 12 10
21 24 25 24 24 25 25 25 25 27 27 26 27 28 27 27 27 26 25 25 25 25 25 25 24 24 24 23 23 22 22 22 21 20 20 19 19 19 19 20 21 20 20 20 19 18 16 16 15 14 13 12 12 15 18 20 20 20 18 15 14 13 14 13 12 11 12 13 14 15 13 10 8 9
22 23 24 24 26 27 27 27 28 29 28 28 29 29 29 29 29 28 28 28 27 26 26 26 25 24 24 24 24 23 23 22 21 20 20 19 19 19 19 20 21 20 19 19 19 17 15 14 13 14 14 12 11 12 14 15 16 17 17 16 13 12 11 10 9 9 9 9 9 11 10 9 8 9
24 24 25 25 27 28 29 29 29 29 30 31 31 30 29 29 30 29 29 29 28 27 27 27 26 26 26 26 26 25 24 23 22 21 20 18 17 17 18 19 20 18 17 17 16 15 13 12 13 14 13 11 10 9 10 11 12 13 14 13 12 10 9 8 6 5 5 6 6 7 8 9 9 8
25 25 25 25 27 29 30 30 30 31 32 32 33 32 31 31 31 31 29 28 27 26 26 26 26 26 26 26 26 26 27 26 26 25 23 21 19 17 15 15 16 16 15 15 14 13 12 12 12 12 10 8 8 8 7 8 8 9 9 9 8 6 6 6 4 2 3 5 6 7 9 10 9 7
25 23 23 25 28 29 30 31 32 32 32 32 33 35 34 32 31 29 27 25 25 25 25 25 26 25 25 25 24 24 24 24 24 25 24 23 22 20 17 15 13 12 12 13 13 12 10 10 9 9 8 6 7 8 7 7 4 3 7 7 4 2 5 5 3 2 3 5 5 6 9 11 9 7
24 22 23 26 30 31 31 32 32 32 32 32 33 36 36 33 30 28 25 24 24 24 24 24 24 23 22 21 21 21 20 19 19 20 20 18 17 17 18 16 12 11 10 10 10 9 8 7 6 6 6 6 7 7 7 6 4 0 4 5 4 1 4 7 6 3 3 4 4 4 6 9 7 6
24 24 26 28 31 32 32 32 31 31 31 32 34 37 36 32 29 26 23 22 22 22 22 21 20 19 19 19 18 18 18 17 17 16 15 14 13 12 13 14 12 10 9 9 8 7 5 4 4 4 5 5 5 4 4 5 5 5 5 7 8 5 1 4 4 3 3 3 4 3 5 5 4 4
24 25 27 29 30 32 32 31 31 29 30 32 36 37 35 31 27 23 20 21 21 20 18 18 18 18 18 18 17 17 16 16 15 14 13 13 11 10 10 10 11 10 8 8 7 6 4 3 3 3 3 3 2 4 6 7 8 9 9 10 10 8 5 3 1 1 3 3 3 3 6 6 5 4
24 26 27 29 32 32 32 31 30 28 31 35 37 36 34 31 27 23 22 22 20 18 18 20 19 19 18 17 17 17 16 16 14 13 13 12 10 10 10 7 9 10 7 4 5 5 2 2 2 2 1 1 4 6 8 9 10 11 11 12 12 10 9 7 6 3 1 3 3 3 5 5 4 2
24 26 28 31 32 32 33 31 29 30 35 38 36 34 33 31 27 24 22 20 17 17 19 19 18 17 18 18 18 18 17 15 13 11 10 9 8 8 8 5 5 8 7 3 4 5 1 2 2 2 3 5 8 9 10 11 12 13 14 14 14 13 11 9 6 4 5 9 9 4 2 2 2 3
24 26 29 31 31 33 34 31 29 33 37 37 35 34 33 30 26 23 21 18 15 16 18 18 17 19 21 22 23 24 21 18 14 12 10 9 7 7 7 5 1 5 5 3 3 2 3 4 2 1 4 8 11 12 12 13 14 16 16 16 16 15 13 12 10 8 12 17 18 12 8 7 6 8
Wind_Direction
307 315 324 320 320 318 313 318 321 323 331 329 314 308 307 302 298 297 296 298 300 300 298 292 294 309 321 328 325 314 305 306 307 301 298 298 297 294 291 286 279 270 263 261 258 257 256 255 256 257 257 258 259 259 259 260 261 262 264 265 265 266 268 269 268 269 269 269 269 270 270 270 268 268
316 309 317 320 319 318 313 311 314 318 323 320 310 299 295 286 273 272 278 284 285 290 293 290 290 295 297 303 307 303 302 304 302 297 295 296 296 297 297 295 290 284 281 277 269 264 262 259 257 256 257 257 258 259 260 260 261 262 263 263 264 265 266 268 268 268 269 269 269 270 271 270 268 266
322 322 325 323 317 313 312 313 314 317 316 309 298 290 288 283 272 269 271 272 275 284 290 291 294 295 295 298 299 294 293 290 286 287 290 288 284 284 287 286 281 278 280 282 279 274 270 266 262 259 259 258 258 259 259 260 260 261 262 263 264 265 264 264 266 267 268 269 269 270 268 267 266 265
329 329 321 314 314 312 314 316 313 310 307 303 300 296 295 295 296 290 274 267 276 290 290 288 293 295 294 295 294 291 291 290 284 282 283 280 273 271 276 278 278 276 278 280 281 278 273 269 265 262 261 260 259 259 260 260 260 260 262 264 265 265 263 263 265 267 268 268 269 269 267 266 265 263
330 323 313 309 313 315 313 310 308 308 305 299 300 304 306 303 305 307 295 285 290 293 288 286 287 288 289 292 295 293 289 289 284 277 274 274 272 271 269 269 277 280 279 279 279 276 273 271 270 268 265 264 262 260 260 261 261 260 260 262 264 265 264 264 266 267 267 268 268 268 267 266 265 262
320 311 310 314 318 317 311 308 311 313 311 308 306 308 310 304 298 299 300 297 292 287 285 286 286 286 286 288 290 285 280 283 286 285 285 284 281 279 275 270 272 276 277 280 280 278 275 272 272 272 270 269 267 264 262 261 260 260 258 259 261 263 263 264 265 266 267 267 268 268 268 267 266 263
319 312 315 322 324 318 311 312 315 316 315 311 306 303 305 307 303 299 298 301 298 292 288 286 284 285 286 286 283 280 278 280 285 290 293 293 290 287 284 279 275 272 274 277 279 280 278 272 270 272 273 273 273 269 264 261 259 258 257 258 259 259 260 262 264 265 266 266 267 268 269 268 267 264
321 319 321 324 322 315 313 315 316 316 312 304 305 310 309 308 312 309 302 302 305 306 305 300 288 281 280 281 281 280 279 277 282 289 289 290 292 292 291 287 280 276 274 271 269 272 274 269 266 267 267 268 272 271 268 265 262 259 256 256 257 257 257 259 261 264 265 266 266 266 268 269 268 265
323 322 322 322 318 313 314 316 314 311 304 295 300 315 313 302 305 309 304 301 302 302 303 302 294 286 284 285 284 282 282 283 285 287 285 286 290 291 292 289 284 280 278 273 270 270 270 268 267 268 267 268 270 272 271 270 267 262 258 256 256 257 258 259 261 262 264 265 265 264 264 266 267 265
324 323 319 315 315 315 315 314 312 310 306 298 293 299 305 300 297 297 296 299 301 298 297 297 296 294 292 291 289 284 285 288 288 285 283 281 282 282 282 282 284 283 277 274 276 278 277 274 270 269 266 263 263 263 263 263 262 261 259 258 258 258 259 260 261 262 263 264 265 265 263 264 264 264
319 316 314 315 318 318 315 310 308 308 309 305 297 293 294 294 291 289 289 292 293 292 293 295 296 294 289 287 286 283 283 287 286 284 285 282 278 275 273 275 285 289 278 268 268 272 279 279 275 271 266 261 260 261 260 260 260 260 260 259 259 259 260 261 260 260 262 265 266 266 265 264 263 263
312 307 310 316 317 314 311 308 307 308 307 305 304 301 299 297 295 295 294 294 295 295 297 298 297 295 291 289 289 288 288 289 286 284 287 289 286 281 274 271 276 280 275 269 266 269 277 282 282 281 277 271 267 265 264 265 265 264 261 260 259 257 257 257 256 256 258 262 265 267 267 266 265 264
314 312 311 311 309 306 307 307 306 306 304 303 304 304 302 301 301 301 301 300 301 300 301 302 300 297 294 292 292 291 291 292 290 288 291 293 291 287 282 274 268 269 273 275 271 266 266 268 270 273 273 268 267 267 265 264 264 262 259 259 257 256 254 253 253 254 256 259 263 265 267 267 267 266
325 319 314 311 310 307 305 304 305 304 302 300 300 298 298 300 301 301 300 299 299 299 300 301 300 298 294 291 290 289 288 289 291 292 292 291 288 286 284 279 271 269 276 281 277 268 263 261 259 258 258 258 260 264 265 266 266 265 263 259 256 256 255 253 253 254 256 259 261 264 266 267 267 267
319 314 312 311 311 307 305 305 305 305 303 301 298 296 296 298 297 295 294 296 298 297 295 294 293 291 290 290 290 287 286 287 289 287 283 283 283 282 281 281 279 276 277 280 278 274 270 269 268 265 262 261 261 262 266 269 270 270 269 266 263 261 260 258 256 255 257 259 261 262 262 263 265 266
314 314 313 312 309 306 306 306 305 304 303 300 298 295 293 292 290 288 288 291 293 291 289 289 288 287 288 290 289 286 286 287 284 280 280 282 283 281 280 281 281 280 279 280 281 280 276 275 278 277 273 272 271 269 269 271 273 274 271 269 268 267 265 263 261 259 259 260 261 259 258 258 260 263
316 311 307 306 306 306 308 307 305 303 301 298 296 295 295 293 292 291 289 289 289 286 285 285 285 286 288 288 287 286 287 286 282 281 284 284 281 278 277 278 276 275 278 281 283 282 279 278 280 279 278 278 278 277 277 277 279 280 279 275 272 269 266 264 262 260 259 258 259 258 256 255 256 258
305 303 306 309 310 311 311 307 303 300 298 298 298 298 298 297 296 294 293 293 292 288 283 280 280 281 283 282 281 282 284 284 282 282 282 284 284 281 280 279 276 273 273 277 281 281 281 283 284 281 279 279 278 279 281 281 280 280 280 280 278 275 272 269 266 262 260 259 259 259 258 257 256 257
305 308 312 311 307 306 305 301 299 300 301 301 301 300 299 298 298 297 297 298 297 293 287 282 280 281 280 277 275 276 278 279 280 280 280 282 286 287 287 285 282 279 277 277 279 281 283 286 287 284 281 279 278 277 274 270 268 270 272 274 275 277 278 277 274 269 265 262 261 261 261 261 260 260
320 319 315 309 305 304 303 302 303 304 303 301 300 300 299 299 299 300 300 300 298 294 289 285 285 284 281 277 275 275 276 275 276 278 279 279 280 283 286 287 287 288 287 284 281 281 282 284 284 282 281 280 279 275 267 260 256 256 261 267 272 275 276 275 274 273 270 267 263 262 262 262 261 262
330 328 325 321 318 314 309 306 305 302 301 301 301 301 301 302 302 302 302 301 299 294 290 289 291 290 285 281 279 278 276 275 275 276 276 275 276 279 282 283 286 288 288 287 281 276 277 280 280 278 278 277 275 273 270 267 262 258 257 259 262 266 269 270 271 273 274 274 270 265 261 261 261 260
333 334 335 328 321 316 308 302 301 301 301 302 303 304 305 305 305 307 307 306 305 303 298 295 294 292 288 286 283 281 279 277 277 276 274 271 270 272 274 277 281 283 282 283 280 272 269 270 272 273 276 276 273 273 276 277 275 272 270 267 266 266 267 269 272 274 276 276 275 269 261 259 260 260
333 338 339 324 305 301 298 297 298 301 302 304 305 307 308 308 310 312 313 313 316 315 311 307 303 300 300 300 297 294 289 283 281 281 278 271 266 267 269 270 274 278 280 283 283 275 270 268 267 269 274 276 275 273 273 272 270 271 272 271 270 270 271 272 273 273 274 274 274 270 262 258 259 261
334 338 340 331 313 305 307 308 306 303 302 303 306 309 312 314 318 321 322 326 328 324 319 318 317 317 321 322 318 316 309 295 288 289 286 271 263 266 268 268 272 277 279 280 278 278 281 280 273 268 268 274 277 274 270 267 266 266 264 263 266 268 270 273 273 272 273 272 274 274 267 258 257 259
333 334 334 334 332 327 325 324 317 310 306 305 308 316 321 322 325 328 331 335 337 335 334 335 335 336 335 331 329 329 326 316 304 298 293 281 271 270 271 273 276 277 276 276 275 278 280 278 275 274 273 273 275 277 277 276 275 273 272 273 275 274 273 275 276 275 274 275 276 277 270 260 256 256
329 330 330 331 331 328 327 326 321 316 315 315 317 326 332 329 327 330 332 334 335 337 339 338 335 337 337 332 329 330 330 327 317 303 295 288 281 277 275 274 276 276 276 276 275 276 276 274 274 277 278 276 276 278 280 280 280 279 278 278 279 277 276 278 279 278 277 277 279 280 275 268 264 260
326 327 328 329 329 329 330 328 322 319 323 324 326 333 336 333 328 325 324 325 327 329 330 329 327 330 330 326 325 325 324 320 312 302 293 286 281 277 275 274 275 277 282 284 282 279 277 276 276 276 276 278 278 278 279 281 284 285 284 281 277 273 272 274 277 279 277 274 275 279 280 277 272 267
325 327 330 332 335 338 340 338 334 332 334 335 335 335 333 327 321 317 316 319 321 320 321 322 323 324 324 321 319 320 317 310 306 302 297 292 287 283 282 283 284 285 287 288 288 286 282 279 278 277 276 276 276 277 280 284 287 290 293 290 281 272 269 268 270 273 272 267 264 266 268 268 267 268
328 334 338 343 349 352 351 349 346 343 342 342 339 337 334 327 322 321 321 320 317 315 315 315 313 313 315 314 311 311 310 306 304 302 301 299 296 291 287 287 287 288 289 290 292 293 288 282 280 280 280 279 278 279 281 285 288 290 292 291 283 275 272 270 269 271 272 268 263 262 264 265 265 264
341 349 353 355 358 357 353 351 349 345 344 341 338 336 335 331 329 328 325 321 317 315 314 313 312 310 308 305 303 303 305 305 302 302 302 301 298 296 295 293 290 289 291 292 293 293 291 287 284 281 280 280 281 282 283 285 288 289 290 289 284 279 277 275 272 270 269 268 265 263 264 266 266 264
358 0 358 357 359 357 356 356 352 347 344 342 339 338 334 330 328 326 322 319 316 314 313 312 313 312 310 307 305 305 305 304 301 301 302 301 300 300 299 298 295 294 294 292 290 292 293 291 286 282 280 279 277 278 280 281 283 289 293 292 285 279 280 280 274 269 265 259 256 257 256 256 259 260
1 359 357 359 1 359 358 356 350 343 340 340 340 336 329 324 323 320 319 319 316 315 316 317 317 316 314 312 310 308 305 303 300 297 296 296 297 298 298 296 295 296 296 294 295 300 301 294 285 281 280 279 276 275 277 276 279 286 291 292 286 281 283 284 280 276 267 252 249 261 258 247 248 252
355 357 359 1 358 353 350 347 342 338 335 334 333 329 322 321 321 319 319 319 318 319 320 319 320 320 317 314 313 311 307 305 304 300 296 294 294 295 295 295 296 298 298 299 303 309 310 306 298 288 281 278 276 273 271 272 277 281 284 286 286 284 284 286 285 287 280 260 254 263 261 247 246 249
353 358 360 357 349 343 342 341 339 337 336 335 334 332 329 328 328 325 322 320 319 319 319 317 318 319 317 316 315 312 309 307 304 302 301 299 297 297 294 292 293 297 299 299 303 309 313 315 314 305 292 284 276 269 267 269 275 279 280 282 285 285 283 282 281 286 288 274 262 262 260 255 254 247
359 360 355 348 343 342 343 343 342 341 341 340 339 336 333 331 330 329 327 324 322 321 320 318 319 321 320 319 316 312 309 307 304 301 301 301 300 300 296 291 290 292 295 296 299 304 312 320 323 320 311 300 283 270 268 269 271 274 277 281 286 287 285 283 279 280 283 276 264 259 255 250 248 240
1 356 349 346 346 347 346 346 345 344 343 342 340 337 334 330 329 329 328 327 324 322 320 320 321 320 318 314 311 310 309 310 309 307 306 304 302 300 297 295 293 293 295 296 295 297 306 317 325 329 323 311 292 276 271 271 272 274 276 281 284 280 278 282 283 279 277 272 260 252 239 223 221 229
357 354 352 351 351 350 349 348 346 344 344 343 341 338 336 333 331 329 325 323 321 319 317 316 316 315 311 306 304 304 305 306 308 306 305 305 306 307 305 302 300 299 301 301 296 292 295 303 316 326 325 311 295 281 271 271 274 276 278 286 288 277 266 271 278 275 268 257 244 232 218 210 211 219
357 357 357 356 355 355 354 350 346 344 344 345 344 343 340 336 333 330 326 323 322 320 318 316 315 314 311 306 304 302 300 300 299 297 295 294 297 304 313 315 311 305 305 306 302 291 285 291 306 321 326 316 305 292 266 250 260 277 289 300 299 271 245 247 263 270 235 219 210 199 192 193 195 201
359 359 358 357 357 356 353 350 347 344 343 345 347 347 345 341 337 335 334 332 329 325 322 321 320 317 314 310 309 307 304 301 298 296 295 291 288 289 296 310 323 319 307 306 306 295 283 285 300 315 325 324 318 304 269 236 230 295 317 322 321 252 218 211 199 165 168 180 190 188 174 169 174 190
357 356 355 353 352 351 350 350 349 346 343 344 345 346 347 345 341 338 335 331 328 326 324 324 324 323 320 318 317 314 309 306 303 301 302 302 298 291 285 287 307 324 319 313 313 304 286 281 297 316 322 319 319 310 275 227 186 5 337 355 29 85 200 199 195 193 162 162 187 195 150 144 166 205
357 356 355 353 351 349 349 348 347 345 344 344 345 346 347 347 342 338 334 332 333 333 334 334 337 337 334 332 329 322 315 310 307 307 310 313 312 305 290 276 279 304 322 324 320 308 284 268 280 304 313 312 310 290 240 190 138 89 57 54 58 60 125 189 205 222 201 179 197 188 140 139 181 218
359 359 358 356 353 351 350 349 347 345 343 342 343 346 347 347 346 344 343 345 348 350 350 352 354 351 346 342 338 330 322 318 313 311 315 315 311 311 307 279 260 273 306 329 331 314 277 248 259 284 309 318 276 208 183 155 125 102 88 80 72 65 63 66 60 236 219 216 219 179 161 173 195 192
2 2 359 357 356 354 352 351 349 345 342 342 344 347 349 351 352 352 353 357 1 4 5 5 3 359 357 355 352 348 341 335 328 318 314 315 312 314 317 292 251 253 275 320 345 329 277 218 229 250 248 246 225 200 169 146 133 118 102 95 88 79 69 61 49 39 123 157 155 160 165 174 188 191
1 2 358 356 357 356 354 353 349 345 345 347 349 351 352 353 355 357 1 7 10 12 13 12 9 9 8 5 1 359 355 350 347 340 331 330 328 323 325 315 251 237 240 267 337 344 12 146 176 192 166 187 207 199 172 151 137 121 110 106 100 89 80 77 73 74 97 97 89 92 128 131 113 110
1 2 358 357 358 356 355 354 349 346 349 353 354 354 356 357 359 4 9 14 17 18 18 16 15 15 12 9 6 4 0 358 360 2 360 357 357 357 357 359 173 187 206 257 322 15 106 126 141 175 159 168 179 175 159 144 130 119 114 109 101 94 90 89 92 100 96 82 71 69 80 81 84 102